• In Latvia
  • List of Countries
  • For 7 days
  • Water Temperature
  • Satellite Maps
  • Weather Map
  • Weather Widgets
  • user-avatar
    Login

    Hourly Weather Tokyo

    Today, 22 February, Thursday

    Time Temperature Precipitation Wind Pressure Humidity
    00:00 +4°C° 0.1 mm 3 mps 761 mmHg 52%
    01:00 +4°C° 0.3 mm 3 mps 761 mmHg 53%
    02:00 +4°C° 0.3 mm 3 mps 761 mmHg 53%
    03:00 +3°C° 0 mm 4 mps 761 mmHg 57%
    04:00 +3°C° 0.3 mm 4 mps 762 mmHg 60%
    05:00 +3°C° 0.3 mm 4 mps 762 mmHg 62%
    06:00 +2°C° 0.3 mm 3 mps 762 mmHg 65%
    07:00 +3°C° 0.2 mm 3 mps 762 mmHg 64%
    08:00 +3°C° 0.2 mm 4 mps 762 mmHg 64%
    09:00 +1°C° 0 mm 4 mps 763 mmHg 54%
    10:00 +3°C° 0.1 mm 4 mps 763 mmHg 56%
    11:00 +3°C° 0.1 mm 4 mps 762 mmHg 58%
    12:00 +4°C° 0.1 mm 4 mps 762 mmHg 60%
    13:00 +4°C° 0 mm 4 mps 762 mmHg 61%
    14:00 +4°C° 0 mm 4 mps 761 mmHg 63%
    15:00 +4°C° 0 mm 4 mps 761 mmHg 64%
    16:00 +4°C° 0 mm 4 mps 762 mmHg 67%
    17:00 +4°C° 0 mm 3 mps 762 mmHg 69%
    18:00 +4°C° 0 mm 3 mps 762 mmHg 72%
    19:00 +4°C° 0.1 mm 3 mps 762 mmHg 73%
    20:00 +4°C° 0.1 mm 3 mps 762 mmHg 75%
    21:00 +4°C° 0.1 mm 3 mps 763 mmHg 77%
    22:00 +4°C° 0.1 mm 3 mps 763 mmHg 78%
    23:00 +4°C° 0.1 mm 3 mps 763 mmHg 79%

    Tomorrow, 23 February, Friday

    Time Temperature Precipitation Wind Pressure Humidity
    00:00 +4°C° 0.1 mm 3 mps 763 mmHg 80%
    01:00 +3°C° 0 mm 3 mps 762 mmHg 79%
    02:00 +3°C° 0 mm 3 mps 762 mmHg 79%
    03:00 +3°C° 0 mm 3 mps 762 mmHg 79%
    04:00 +3°C° 0 mm 3 mps 762 mmHg 79%
    05:00 +3°C° 0 mm 3 mps 762 mmHg 79%
    06:00 +3°C° 0 mm 3 mps 762 mmHg 80%
    07:00 +3°C° 0 mm 3 mps 762 mmHg 76%
    08:00 +4°C° 0 mm 3 mps 762 mmHg 73%
    09:00 +4°C° 0 mm 3 mps 762 mmHg 69%
    10:00 +6°C° 0 mm 2 mps 762 mmHg 65%
    11:00 +7°C° 0 mm 2 mps 762 mmHg 61%
    12:00 +8°C° 0 mm 2 mps 762 mmHg 56%
    13:00 +9°C° 0 mm 2 mps 761 mmHg 53%
    14:00 +9°C° 0 mm 2 mps 761 mmHg 49%
    15:00 +10°C° 0 mm 2 mps 761 mmHg 46%
    16:00 +9°C° 0 mm 2 mps 762 mmHg 47%
    17:00 +9°C° 0 mm 2 mps 762 mmHg 48%
    18:00 +9°C° 0 mm 1 mps 763 mmHg 49%
    19:00 +8°C° 0 mm 2 mps 763 mmHg 51%
    20:00 +7°C° 0 mm 2 mps 764 mmHg 54%
    21:00 +7°C° 0 mm 2 mps 764 mmHg 56%
    22:00 +7°C° 0 mm 2 mps 764 mmHg 58%
    23:00 +7°C° 0 mm 1 mps 764 mmHg 60%

    Day after tomorrow, 24 February, Saturday

    Time Temperature Precipitation Wind Pressure Humidity
    00:00 +7°C° 0 mm 1 mps 764 mmHg 63%
    01:00 +7°C° 0 mm 1 mps 764 mmHg 63%
    02:00 +6°C° 0 mm 1 mps 764 mmHg 62%
    03:00 +6°C° 0 mm 1 mps 764 mmHg 62%
    04:00 +6°C° 0 mm 1 mps 764 mmHg 62%
    05:00 +5°C° 0 mm 1 mps 764 mmHg 62%
    06:00 +5°C° 0 mm 1 mps 764 mmHg 62%
    07:00 +5°C° 0 mm 2 mps 764 mmHg 58%
    08:00 +7°C° 0 mm 3 mps 763 mmHg 54%
    09:00 +7°C° 0 mm 4 mps 763 mmHg 49%
    10:00 +8°C° 0 mm 4 mps 763 mmHg 43%
    11:00 +10°C° 0 mm 5 mps 762 mmHg 37%
    12:00 +13°C° 0 mm 5 mps 761 mmHg 31%
    13:00 +13°C° 0 mm 5 mps 761 mmHg 29%
    14:00 +14°C° 0 mm 4 mps 761 mmHg 26%
    15:00 +15°C° 0 mm 4 mps 760 mmHg 24%
    16:00 +14°C° 0 mm 4 mps 761 mmHg 25%
    17:00 +13°C° 0 mm 3 mps 761 mmHg 27%
    18:00 +12°C° 0 mm 3 mps 762 mmHg 29%
    19:00 +11°C° 0 mm 4 mps 763 mmHg 31%
    20:00 +8°C° 0 mm 5 mps 764 mmHg 33%
    21:00 +7°C° 0 mm 6 mps 764 mmHg 35%
    22:00 +5°C° 0 mm 6 mps 765 mmHg 37%
    23:00 +6°C° 0 mm 5 mps 765 mmHg 39%

    25 February, Sunday

    Time Temperature Precipitation Wind Pressure Humidity
    00:00 +5°C° 0 mm 5 mps 765 mmHg 40%
    01:00 +3°C° 0 mm 5 mps 765 mmHg 42%
    02:00 +4°C° 0 mm 4 mps 766 mmHg 43%
    03:00 +3°C° 0 mm 4 mps 766 mmHg 45%
    04:00 +3°C° 0 mm 4 mps 766 mmHg 46%
    05:00 +3°C° 0 mm 4 mps 767 mmHg 47%
    06:00 +1°C° 0 mm 4 mps 767 mmHg 47%
    07:00 +3°C° 0 mm 4 mps 767 mmHg 46%
    08:00 +3°C° 0 mm 3 mps 767 mmHg 44%
    09:00 +4°C° 0 mm 3 mps 768 mmHg 42%
    10:00 +4°C° 0 mm 3 mps 767 mmHg 41%
    11:00 +5°C° 0 mm 3 mps 767 mmHg 40%
    12:00 +7°C° 0 mm 3 mps 766 mmHg 39%
    13:00 +7°C° 0 mm 3 mps 766 mmHg 41%
    14:00 +7°C° 0 mm 3 mps 766 mmHg 43%
    15:00 +7°C° 0 mm 3 mps 765 mmHg 45%
    16:00 +7°C° 0 mm 3 mps 765 mmHg 50%
    17:00 +5°C° 0 mm 3 mps 766 mmHg 55%
    18:00 +5°C° 0 mm 3 mps 766 mmHg 60%
    19:00 +5°C° 0.1 mm 3 mps 766 mmHg 62%
    20:00 +5°C° 0.1 mm 3 mps 766 mmHg 65%
    21:00 +4°C° 0.1 mm 3 mps 766 mmHg 68%
    22:00 +4°C° 0.1 mm 3 mps 766 mmHg 69%
    23:00 +4°C° 0.1 mm 3 mps 766 mmHg 69%

    26 February, Monday

    Time Temperature Precipitation Wind Pressure Humidity
    00:00 +4°C° 0.1 mm 3 mps 766 mmHg 70%
    01:00 +4°C° 0 mm 3 mps 766 mmHg 69%
    02:00 +3°C° 0 mm 3 mps 766 mmHg 68%
    03:00 +3°C° 0 mm 3 mps 765 mmHg 67%
    04:00 +3°C° 0 mm 3 mps 766 mmHg 66%
    05:00 +3°C° 0 mm 3 mps 766 mmHg 66%
    06:00 +3°C° 0 mm 3 mps 766 mmHg 65%
    07:00 +3°C° 0 mm 3 mps 766 mmHg 62%
    08:00 +4°C° 0 mm 4 mps 766 mmHg 58%
    09:00 +4°C° 0 mm 4 mps 766 mmHg 55%
    10:00 +5°C° 0 mm 4 mps 766 mmHg 52%
    11:00 +7°C° 0 mm 3 mps 765 mmHg 49%
    12:00 +8°C° 0 mm 3 mps 765 mmHg 46%
    13:00 +8°C° 0 mm 3 mps 764 mmHg 47%
    14:00 +9°C° 0 mm 3 mps 764 mmHg 48%
    15:00 +8°C° 0 mm 4 mps 764 mmHg 48%
    16:00 +9°C° 0 mm 3 mps 764 mmHg 52%
    17:00 +8°C° 0 mm 3 mps 764 mmHg 56%
    18:00 +8°C° 0 mm 3 mps 765 mmHg 60%
    19:00 +8°C° 0 mm 3 mps 765 mmHg 63%
    20:00 +8°C° 0 mm 3 mps 765 mmHg 66%
    21:00 +7°C° 0 mm 2 mps 766 mmHg 69%
    22:00 +7°C° 0 mm 2 mps 765 mmHg 71%
    23:00 +7°C° 0 mm 2 mps 765 mmHg 72%

    27 February, Tuesday

    Time Temperature Precipitation Wind Pressure Humidity
    00:00 +8°C° 0 mm 1 mps 765 mmHg 73%
    01:00 +8°C° 0 mm 1 mps 765 mmHg 74%
    02:00 +6°C° 0 mm 2 mps 764 mmHg 74%
    03:00 +6°C° 0 mm 2 mps 764 mmHg 74%
    04:00 +6°C° 0 mm 2 mps 764 mmHg 74%
    05:00 +6°C° 0 mm 2 mps 764 mmHg 74%
    06:00 +6°C° 0 mm 2 mps 765 mmHg 74%
    07:00 +7°C° 0 mm 2 mps 765 mmHg 71%
    08:00 +7°C° 0 mm 2 mps 765 mmHg 67%
    09:00 +8°C° 0 mm 2 mps 765 mmHg 64%
    10:00 +9°C° 0 mm 2 mps 764 mmHg 61%
    11:00 +11°C° 0 mm 1 mps 764 mmHg 57%
    12:00 +12°C° 0 mm 1 mps 763 mmHg 54%
    13:00 +13°C° 0 mm 2 mps 763 mmHg 51%
    14:00 +13°C° 0 mm 2 mps 762 mmHg 48%
    15:00 +14°C° 0 mm 2 mps 762 mmHg 46%
    16:00 +13°C° 0 mm 2 mps 762 mmHg 47%
    17:00 +13°C° 0 mm 2 mps 763 mmHg 49%
    18:00 +12°C° 0 mm 2 mps 763 mmHg 50%
    19:00 +12°C° 0 mm 2 mps 763 mmHg 52%
    20:00 +10°C° 0 mm 2 mps 763 mmHg 53%
    21:00 +11°C° 0 mm 1 mps 763 mmHg 55%
    22:00 +10°C° 0 mm 1 mps 763 mmHg 55%
    23:00 +10°C° 0 mm 1 mps 763 mmHg 56%
    Show more